This is the latest recevied weather packets stored in our database for station/object N8BAP. If no packets are shown the sender has not sent any weather packets the latest 10 day(s).
| Time | Temp. | Humidity | Pressure | Rain* | Wind** | Luminosity | Snow |
|---|---|---|---|---|---|---|---|
| 1787962655 | 21.67° C | 81% | 1024.9 hPa | 0 mm | - | 0 W/m² | - |
| 1787962340 | 22.22° C | 79% | 1024.9 hPa | 0 mm | - | 2 W/m² | - |
| 1787962034 | 22.78° C | 77% | 1024.7 hPa | 0 mm | - | 3 W/m² | - |
| 1787961729 | 23.89° C | 74% | 1024.6 hPa | 0 mm | - | 7 W/m² | - |
| 1787961422 | 23.89° C | 73% | 1024.9 hPa | 0 mm | - | 10 W/m² | - |
| 1787961122 | 24.44° C | 71% | 1024.6 hPa | 0 mm | - | 14 W/m² | - |
| 1787960821 | 25° C | 69% | 1024.5 hPa | 0 mm | - | 18 W/m² | - |
| 1787960516 | 26.11° C | 67% | 1024.4 hPa | 0 mm | - | 22 W/m² | - |
| 1787960215 | 26.67° C | 66% | 1024.5 hPa | 0 mm | - | 26 W/m² | - |
| 1787959909 | 26.67° C | 64% | 1024.3 hPa | 0 mm | - | 30 W/m² | - |
| 1787959604 | 26.67° C | 65% | 1024.3 hPa | 0 mm | - | 36 W/m² | - |
| 1787959300 | 27.22° C | 63% | 1024.5 hPa | 0 mm | - | 42 W/m² | - |
| 1787958999 | 27.22° C | 63% | 1024.7 hPa | 0 mm | - | 48 W/m² | - |
| 1787958694 | 26.67° C | 63% | 1024.5 hPa | 0 mm | - | 53 W/m² | - |
| 1787958390 | 26.67° C | 62% | 1024.7 hPa | 0 mm | - | 71 W/m² | - |
| 1787958086 | 27.22° C | 62% | 1024.6 hPa | 0 mm | - | 89 W/m² | - |
| 1787957784 | 26.67° C | 62% | 1024.7 hPa | 0 mm | - | 103 W/m² | - |
| 1787957479 | 27.22° C | 60% | 1024.6 hPa | 0 mm | - | 113 W/m² | - |
| 1787957178 | 27.78° C | 59% | 1024.7 hPa | 0 mm | - | 126 W/m² | - |
| 1787956874 | 27.22° C | 58% | 1024.5 hPa | 0 mm | - | 119 W/m² | - |
| 1787956568 | 27.22° C | 59% | 1024.7 hPa | 0 mm | - | 151 W/m² | - |
| 1787956263 | 27.22° C | 60% | 1024.7 hPa | 0 mm | - | 161 W/m² | - |
| 1787955958 | 26.67° C | 62% | 1024.7 hPa | 0 mm | - | 171 W/m² | - |
| 1787955654 | 26.67° C | 61% | 1024.7 hPa | 0 mm | - | 186 W/m² | - |
| 1787955349 | 26.11° C | 63% | 1024.7 hPa | 0 mm | - | 205 W/m² | - |
* Rain latest hour (hover to see other rain measurements)
** Current wind speed in m/s (hover to see current wind gust speed)